Погода в Шумске

Украина / Тернопольская область     50˚07′04″N   26˚07′03″E
темп.,
°C
ветер,
м/с
пор.,
м/с
влажн.,
%
обл.,
%
осадки,
мм/ч
давл.,
гПа
погр.,
м
16 января, сб
сб1623:00−9˚сз489395 0.1 1015585
02:00−12˚ссз479297 0.3 1016438
05:00−15˚сз5992100 0.0 1016498
08:00−16˚сз5991100 0.1 1018525
11:00−13˚зсз5886100 0.1 1018707
14:00−11˚зсз5883100 0.1 1017740
17:00−12˚зсз2692100 0.0 1017365
20:00−12˚юз249490 0.0 1016138
17 января, вс
вс1723:00−9˚ююз469490 0.1 1016241
02:00−8˚зюз489493 0.3 1015333
05:00−9˚зюз379595 0.1 1015238
08:00−9˚з379593 0.2 1016202
11:00−7˚сз359190 0.1 1017341
14:00−6˚сз468995 0.1 1017536
17:00−8˚с4593100 0.2 1018357
20:00−10˚ссз4792100 0.3 1020403
18 января, пн
пн1823:00−12˚ссз3691100 0.1 1020433
02:00−13˚сз4793100 0.1 1021366
05:00−15˚сз479276 0.0 1021290
08:00−17˚сз489477 0.0 1023288
11:00−15˚сз479098 0.0 1023337
14:00−13˚сз468888 0.0 1023419
17:00−14˚зсз359490 0.0 1023220
20:00−15˚зсз369382 0.0 1024200
19 января, вт
вт1923:00−15˚зсз369282 0.0 1024203
02:00−15˚зсз249576 0.0 1023123
05:00−14˚з229588 0.0 102357
08:00−13˚юз239294 0.0 102339
11:00−9˚зюз358460 0.0 1022253
14:00−6˚юз369263 0.1 1020368
17:00−6˚ююз369697 0.4 1020144
20:00−6˚юз379595 0.6 1020180
20 января, ср
ср2023:00−5˚юз4987100 0.0 1020265
02:00−6˚ююз4885100 0.1 1019205
05:00−5˚ююз4892100 0.1 1018260
08:00−4˚ю51095100 0.2 1018299
11:00−2˚ююз6109499 0.6 1017491
14:00−1˚ююз599399 0.8 1017452
17:00−1˚ю488691 0.0 1016223
20:00−3˚ююз598585 0.0 1016198